Location: Unspecified
(42.9300°N, 71.1866°W)
Time: 05:56:03
(UTC-05:00)

Genesis I - Visible Passes

Search period start: 01 March 2015 00:00
Search period end: 11 March 2015 01:00
Orbit: 491 x 562 km, 64.5° (Epoch: 28 February)

Date Brightness Start Highest point End Pass type
(mag) Time Alt. Az. Time Alt. Az. Time Alt. Az.
08 Mar 5.7 06:30:15 10° N 06:33:31 22° NE 06:36:48 10° E visible
09 Mar 5.6 06:17:43 10° N 06:21:05 23° NE 06:24:28 10° E visible
10 Mar 5.5 06:05:10 10° NNW 06:08:39 25° NE 06:12:08 10° ESE visible
